Torna al catalogo

SL-12 DEB

LostUNKNOWN
NORAD 28004·DEBRIS·🇷🇺 Russia

Lanciato Sep 16, 1988 da Baikonur Cosmodrome

Loading…

Prossimi Passaggi (prossime 24 ore)

TLE

ObsoletoSource: Space-Track

Epoca: Jul 17, 2026, 07:09 UTC

1 28004U 88085BA  26198.29792932  .00064280  00000-0  20037+0 0  9993
2 28004  63.8633 302.9194 2221850 287.0282  76.7820  9.84088518 74127

Traccia SL-12 DEB in tempo reale con AllMySat

Download on the App Store